SAS23WT ENTC-EPKK

Flight info

Callsign SAS23WT
Flight time 2h 52m
Altitude 37000
Route MOKAX DCT PENOR DCT UWLER
Aircraft A320/M-SDE3FGHIRWY/LB1

Departure

Time 2026-05-07 15:11
Airport Tromsø Airport (ENTC)

Arrival

Time 2026-05-07 18:03
Airport Kraków John Paul II International Airport (EPKK)
Time Latitude Longitude Altitude Speed Heading
2026-05-07 14:48 69.68050 18.90996 30 ft 0 kts 284°
2026-05-07 15:01 69.68049 18.91006 30 ft 3 kts 284°
2026-05-07 15:01 69.68042 18.91080 30 ft 4 kts 284°
2026-05-07 15:01 69.68036 18.91155 30 ft 4 kts 286°
2026-05-07 15:02 69.68026 18.91227 30 ft 4 kts 302°
2026-05-07 15:02 69.68010 18.91278 30 ft 4 kts 353°
2026-05-07 15:02 69.68002 18.91279 30 ft 0 kts 13°
2026-05-07 15:06 69.68014 18.91288 30 ft 4 kts 13°
2026-05-07 15:07 69.68057 18.91316 30 ft 8 kts 13°
2026-05-07 15:07 69.68122 18.91360 29 ft 11 kts 13°
2026-05-07 15:07 69.68206 18.91417 29 ft 14 kts 13°
2026-05-07 15:07 69.68309 18.91485 28 ft 17 kts 13°
2026-05-07 15:08 69.68430 18.91500 27 ft 18 kts 360°
2026-05-07 15:08 69.68547 18.91564 26 ft 17 kts 13°
2026-05-07 15:08 69.68672 18.91651 25 ft 20 kts 13°
2026-05-07 15:08 69.68779 18.91794 25 ft 14 kts 80°
2026-05-07 15:09 69.68773 18.91897 26 ft 0 kts 104°
2026-05-07 15:09 69.68773 18.91902 25 ft 2 kts 104°
2026-05-07 15:09 69.68757 18.92075 22 ft 16 kts 105°
2026-05-07 15:10 69.68682 18.92118 24 ft 10 kts 191°
2026-05-07 15:10 69.68677 18.92115 24 ft 0 kts 191°
2026-05-07 15:10 69.68675 18.92114 25 ft 0 kts 191°
2026-05-07 15:10 69.68598 18.92065 27 ft 41 kts 193°
2026-05-07 15:11 69.68098 18.91733 29 ft 104 kts 193°
2026-05-07 15:11 69.67249 18.91166 340 ft 126 kts 193°
2026-05-07 15:11 69.66373 18.90640 946 ft 134 kts 193°
2026-05-07 15:11 69.65395 18.89996 1290 ft 156 kts 193°
2026-05-07 15:12 69.64222 18.89207 1459 ft 184 kts 193°
2026-05-07 15:12 69.62903 18.88322 1734 ft 206 kts 193°
2026-05-07 15:12 69.61443 18.87349 2095 ft 226 kts 193°
2026-05-07 15:12 69.59870 18.86302 2621 ft 242 kts 193°
2026-05-07 15:13 69.58167 18.85436 3302 ft 254 kts 184°
2026-05-07 15:13 69.56413 18.85770 4169 ft 259 kts 169°
2026-05-07 15:13 69.54661 18.87122 5067 ft 263 kts 165°
2026-05-07 15:13 69.52893 18.88560 5954 ft 266 kts 165°
2026-05-07 15:14 69.51098 18.90020 6793 ft 270 kts 165°
2026-05-07 15:14 69.49277 18.91491 7609 ft 273 kts 166°
2026-05-07 15:14 69.47469 18.93264 8411 ft 278 kts 155°
2026-05-07 15:14 69.45823 18.96222 9210 ft 283 kts 141°
2026-05-07 15:15 69.44350 18.99994 10016 ft 287 kts 139°
2026-05-07 15:15 69.42826 19.03921 10331 ft 307 kts 139°
2026-05-07 15:15 69.41178 19.08140 10492 ft 330 kts 139°
2026-05-07 15:15 69.39433 19.12597 10920 ft 342 kts 139°
2026-05-07 15:16 69.37654 19.17135 11578 ft 346 kts 139°
2026-05-07 15:16 69.35849 19.21726 12250 ft 350 kts 139°
2026-05-07 15:16 69.34027 19.26354 12939 ft 354 kts 139°
2026-05-07 15:16 69.32189 19.31023 13595 ft 357 kts 139°
2026-05-07 15:17 69.30331 19.35735 14222 ft 361 kts 139°
2026-05-07 15:17 69.28448 19.40482 14810 ft 364 kts 139°
2026-05-07 15:17 69.26546 19.45238 15401 ft 367 kts 140°
2026-05-07 15:17 69.24627 19.50017 16014 ft 370 kts 140°
2026-05-07 15:18 69.22689 19.54832 16596 ft 373 kts 140°
2026-05-07 15:18 69.20742 19.59671 17193 ft 376 kts 140°
2026-05-07 15:18 69.18776 19.64562 17793 ft 379 kts 140°
2026-05-07 15:18 69.16792 19.69486 18398 ft 382 kts 140°
2026-05-07 15:19 69.14791 19.74431 18941 ft 385 kts 140°
2026-05-07 15:19 69.12775 19.79399 19524 ft 387 kts 140°
2026-05-07 15:19 69.10621 19.83947 20107 ft 389 kts 149°
2026-05-07 15:19 69.08212 19.87392 20675 ft 390 kts 159°
2026-05-07 15:20 69.05615 19.89600 21222 ft 391 kts 169°
2026-05-07 15:20 69.02899 19.90505 21742 ft 393 kts 179°
2026-05-07 15:20 69.00166 19.90083 22246 ft 395 kts 187°
2026-05-07 15:20 68.97430 19.89160 22744 ft 398 kts 187°
2026-05-07 15:21 68.94669 19.88251 23231 ft 400 kts 187°
2026-05-07 15:21 68.91897 19.87357 23675 ft 403 kts 187°
2026-05-07 15:21 68.89105 19.86467 24048 ft 405 kts 187°
2026-05-07 15:21 68.86294 19.85570 24415 ft 408 kts 187°
2026-05-07 15:22 68.83469 19.84667 24770 ft 410 kts 187°
2026-05-07 15:22 68.80623 19.83754 25128 ft 413 kts 187°
2026-05-07 15:22 68.77761 19.82838 25509 ft 415 kts 187°
2026-05-07 15:22 68.74882 19.81917 25762 ft 420 kts 187°
2026-05-07 15:23 68.71950 19.80976 25894 ft 428 kts 187°
2026-05-07 15:23 68.68990 19.80024 26222 ft 431 kts 187°
2026-05-07 15:23 68.65985 19.79062 26347 ft 437 kts 187°
2026-05-07 15:23 68.62939 19.78089 26486 ft 443 kts 187°
2026-05-07 15:24 68.59861 19.77110 26624 ft 449 kts 187°
2026-05-07 15:24 68.56737 19.76127 26755 ft 453 kts 187°
2026-05-07 15:24 68.53627 19.75163 26898 ft 457 kts 187°
2026-05-07 15:24 68.50452 19.74189 27028 ft 460 kts 187°
2026-05-07 15:25 68.47263 19.73212 27168 ft 462 kts 187°
2026-05-07 15:25 68.44057 19.72221 27304 ft 464 kts 187°
2026-05-07 15:25 68.40844 19.71216 27442 ft 466 kts 187°
2026-05-07 15:25 68.37616 19.70209 27583 ft 467 kts 187°
2026-05-07 15:26 68.34386 19.69211 27720 ft 468 kts 187°
2026-05-07 15:26 68.31149 19.68214 27862 ft 469 kts 187°
2026-05-07 15:26 68.27905 19.67215 28003 ft 469 kts 187°
2026-05-07 15:26 68.24657 19.66217 28144 ft 470 kts 187°
2026-05-07 15:27 68.21417 19.65226 28279 ft 470 kts 187°
2026-05-07 15:27 68.18158 19.64235 28430 ft 470 kts 187°
2026-05-07 15:27 68.14909 19.63254 28570 ft 470 kts 187°
2026-05-07 15:27 68.11651 19.62278 28714 ft 470 kts 187°
2026-05-07 15:28 68.08397 19.61304 28858 ft 471 kts 187°
2026-05-07 15:28 68.05138 19.60326 29003 ft 471 kts 187°
2026-05-07 15:28 68.01881 19.59356 29144 ft 471 kts 187°
2026-05-07 15:28 67.98656 19.58401 29288 ft 471 kts 187°
2026-05-07 15:29 67.95357 19.57423 29442 ft 471 kts 187°
2026-05-07 15:29 67.92126 19.56460 29581 ft 471 kts 187°
2026-05-07 15:29 67.88871 19.55491 29731 ft 472 kts 187°
2026-05-07 15:29 67.85603 19.54523 29881 ft 472 kts 187°
2026-05-07 15:30 67.82341 19.53555 30035 ft 472 kts 187°
2026-05-07 15:30 67.79075 19.52584 30167 ft 472 kts 187°
2026-05-07 15:30 67.75806 19.51624 30285 ft 472 kts 187°
2026-05-07 15:30 67.72540 19.50676 30410 ft 472 kts 187°
2026-05-07 15:31 67.69272 19.49731 30531 ft 473 kts 187°
2026-05-07 15:31 67.66002 19.48790 30646 ft 473 kts 187°
2026-05-07 15:31 67.62726 19.47849 30772 ft 473 kts 187°
2026-05-07 15:31 67.59449 19.46904 30895 ft 473 kts 187°
2026-05-07 15:32 67.56178 19.45955 31013 ft 473 kts 188°
2026-05-07 15:32 67.52905 19.45008 31137 ft 473 kts 187°
2026-05-07 15:32 67.49630 19.44068 31257 ft 474 kts 187°
2026-05-07 15:32 67.46349 19.43133 31381 ft 474 kts 188°
2026-05-07 15:33 67.43073 19.42205 31505 ft 474 kts 188°
2026-05-07 15:33 67.39795 19.41274 31631 ft 474 kts 188°
2026-05-07 15:33 67.36511 19.40338 31750 ft 474 kts 188°
2026-05-07 15:33 67.33232 19.39403 31877 ft 474 kts 188°
2026-05-07 15:34 67.29951 19.38471 31999 ft 474 kts 188°
2026-05-07 15:34 67.26711 19.37559 32128 ft 475 kts 188°
2026-05-07 15:34 67.23424 19.36640 32254 ft 475 kts 188°
2026-05-07 15:34 67.20140 19.35729 32377 ft 475 kts 188°
2026-05-07 15:35 67.16854 19.34822 32512 ft 475 kts 188°
2026-05-07 15:35 67.13562 19.33912 32640 ft 475 kts 188°
2026-05-07 15:35 67.10271 19.33000 32750 ft 475 kts 188°
2026-05-07 15:35 67.06984 19.32086 32899 ft 475 kts 188°
2026-05-07 15:36 67.03690 19.31168 33024 ft 476 kts 188°
2026-05-07 15:36 67.00403 19.30255 33164 ft 476 kts 188°
2026-05-07 15:36 66.97109 19.29350 33297 ft 476 kts 188°
2026-05-07 15:36 66.93817 19.28451 33439 ft 476 kts 188°
2026-05-07 15:37 66.90522 19.27556 33583 ft 476 kts 188°
2026-05-07 15:37 66.87230 19.26665 33727 ft 476 kts 188°
2026-05-07 15:37 66.83936 19.25778 33867 ft 476 kts 188°
2026-05-07 15:37 66.80641 19.24893 34018 ft 476 kts 188°
2026-05-07 15:38 66.77349 19.24003 34134 ft 476 kts 188°
2026-05-07 15:38 66.74058 19.23114 34264 ft 476 kts 188°
2026-05-07 15:38 66.70759 19.22232 34389 ft 476 kts 188°
2026-05-07 15:38 66.67460 19.21354 34519 ft 476 kts 188°
2026-05-07 15:39 66.64162 19.20481 34651 ft 476 kts 188°
2026-05-07 15:39 66.60870 19.19606 34780 ft 476 kts 188°
2026-05-07 15:39 66.57572 19.18725 34915 ft 476 kts 188°
2026-05-07 15:39 66.54278 19.17844 35049 ft 476 kts 188°
2026-05-07 15:40 66.50975 19.16973 35189 ft 476 kts 188°
2026-05-07 15:40 66.47723 19.16122 35325 ft 476 kts 188°
2026-05-07 15:40 66.44377 19.15250 35460 ft 476 kts 188°
2026-05-07 15:40 66.41082 19.14388 35608 ft 476 kts 188°
2026-05-07 15:41 66.37787 19.13523 35731 ft 476 kts 188°
2026-05-07 15:41 66.34486 19.12660 35856 ft 476 kts 188°
2026-05-07 15:41 66.31189 19.11800 35983 ft 476 kts 188°
2026-05-07 15:41 66.27891 19.10940 36104 ft 476 kts 188°
2026-05-07 15:42 66.24599 19.10093 36228 ft 476 kts 188°
2026-05-07 15:42 66.22413 19.09532 36301 ft 476 kts 188°
2026-05-07 15:42 66.18050 19.08410 36458 ft 475 kts 189°
2026-05-07 15:42 66.15829 19.07838 36542 ft 475 kts 189°
2026-05-07 15:43 66.12540 19.06997 36665 ft 475 kts 189°
2026-05-07 15:43 66.09256 19.06166 36784 ft 474 kts 189°
2026-05-07 15:43 66.05980 19.05339 36928 ft 473 kts 189°
2026-05-07 15:43 66.02708 19.04512 37033 ft 473 kts 189°
2026-05-07 15:44 65.96135 19.02843 37048 ft 476 kts 189°
2026-05-07 15:44 65.89549 19.01182 37047 ft 476 kts 189°
2026-05-07 15:45 65.82950 18.99522 37035 ft 476 kts 189°
2026-05-07 15:45 65.76360 18.97878 37040 ft 476 kts 189°
2026-05-07 15:46 65.66447 18.95446 37042 ft 478 kts 189°
2026-05-07 15:47 65.59831 18.93812 37050 ft 478 kts 189°
2026-05-07 15:47 65.53199 18.92173 37051 ft 479 kts 189°
2026-05-07 15:48 65.46613 18.90582 37053 ft 478 kts 189°
2026-05-07 15:48 65.39980 18.88977 37059 ft 479 kts 189°
2026-05-07 15:49 65.33357 18.87374 37060 ft 478 kts 189°
2026-05-07 15:49 65.26725 18.85781 37066 ft 478 kts 189°
2026-05-07 15:50 65.20096 18.84202 37068 ft 478 kts 189°
2026-05-07 15:50 65.13466 18.82627 37069 ft 478 kts 189°
2026-05-07 15:51 65.06840 18.81059 37065 ft 478 kts 189°
2026-05-07 15:51 65.00219 18.79507 37067 ft 478 kts 189°
2026-05-07 15:52 64.93598 18.77956 37065 ft 478 kts 189°
2026-05-07 15:52 64.86980 18.76407 37072 ft 478 kts 189°
2026-05-07 15:53 64.80360 18.74893 37067 ft 478 kts 189°
2026-05-07 15:53 64.73748 18.73371 37074 ft 478 kts 189°
2026-05-07 15:54 64.67123 18.71847 37073 ft 478 kts 189°
2026-05-07 15:54 64.60511 18.70360 37076 ft 478 kts 189°
2026-05-07 15:55 64.53894 18.68855 37077 ft 477 kts 189°
2026-05-07 15:55 64.47324 18.67359 37079 ft 477 kts 189°
2026-05-07 15:56 64.40711 18.65869 37078 ft 477 kts 189°
2026-05-07 15:56 64.34094 18.64389 37078 ft 477 kts 189°
2026-05-07 15:57 64.27488 18.62921 37077 ft 477 kts 189°
2026-05-07 15:57 64.20874 18.61451 37080 ft 477 kts 189°
2026-05-07 15:58 64.14259 18.59999 37080 ft 477 kts 189°
2026-05-07 15:58 64.07646 18.58563 37086 ft 477 kts 189°
2026-05-07 15:59 64.01036 18.57115 37083 ft 477 kts 190°
2026-05-07 15:59 63.94426 18.55671 37087 ft 477 kts 189°
2026-05-07 16:00 63.87818 18.54238 37098 ft 477 kts 190°
2026-05-07 16:00 63.81217 18.52810 37085 ft 477 kts 190°
2026-05-07 16:01 63.74652 18.51400 37086 ft 477 kts 190°
2026-05-07 16:01 63.68048 18.49995 37096 ft 476 kts 190°
2026-05-07 16:02 63.61450 18.48607 37096 ft 476 kts 190°
2026-05-07 16:02 63.58167 18.47924 37291 ft 472 kts 190°
2026-05-07 16:02 63.54899 18.47246 36930 ft 466 kts 190°
2026-05-07 16:02 63.51673 18.46566 37098 ft 466 kts 190°
2026-05-07 16:03 63.48438 18.45871 37103 ft 469 kts 190°
2026-05-07 16:03 63.41906 18.44469 37096 ft 472 kts 190°
2026-05-07 16:04 63.35353 18.43111 37097 ft 473 kts 190°
2026-05-07 16:04 63.28800 18.41776 37095 ft 474 kts 190°
2026-05-07 16:05 63.22223 18.40418 37110 ft 474 kts 190°
2026-05-07 16:05 63.15648 18.39040 37118 ft 474 kts 190°
2026-05-07 16:06 63.09069 18.37696 37124 ft 475 kts 190°
2026-05-07 16:06 63.02490 18.36373 37124 ft 474 kts 190°
2026-05-07 16:07 62.95918 18.35046 37127 ft 474 kts 190°
2026-05-07 16:07 62.89356 18.33704 37129 ft 473 kts 190°
2026-05-07 16:08 62.82798 18.32382 37142 ft 473 kts 190°
2026-05-07 16:08 62.76237 18.31077 37138 ft 473 kts 190°
2026-05-07 16:09 62.69683 18.29777 37139 ft 472 kts 190°
2026-05-07 16:09 62.63139 18.28480 37139 ft 472 kts 191°
2026-05-07 16:10 62.56597 18.27179 37144 ft 472 kts 191°
2026-05-07 16:10 62.50067 18.25894 37150 ft 471 kts 191°
2026-05-07 16:11 62.43542 18.24612 37152 ft 471 kts 191°
2026-05-07 16:11 62.37021 18.23336 37150 ft 470 kts 191°
2026-05-07 16:12 62.30501 18.22083 37149 ft 470 kts 191°
2026-05-07 16:12 62.24030 18.20840 37152 ft 470 kts 191°
2026-05-07 16:13 62.17516 18.19579 37154 ft 469 kts 191°
2026-05-07 16:13 62.11013 18.18331 37153 ft 469 kts 191°
2026-05-07 16:14 62.04518 18.17097 37157 ft 469 kts 191°
2026-05-07 16:14 61.98021 18.15872 37158 ft 468 kts 191°
2026-05-07 16:15 61.91521 18.14633 37158 ft 468 kts 191°
2026-05-07 16:15 61.85039 18.13403 37157 ft 468 kts 191°
2026-05-07 16:16 61.78598 18.12195 37162 ft 467 kts 191°
2026-05-07 16:16 61.72117 18.10999 37160 ft 467 kts 191°
2026-05-07 16:17 61.65642 18.09796 37158 ft 467 kts 191°
2026-05-07 16:17 61.59161 18.08612 37161 ft 467 kts 191°
2026-05-07 16:18 61.52685 18.07420 37159 ft 466 kts 191°
2026-05-07 16:18 61.46228 18.06222 37162 ft 466 kts 191°
2026-05-07 16:19 61.39807 18.05051 37159 ft 466 kts 191°
2026-05-07 16:19 61.33348 18.03884 37162 ft 465 kts 191°
2026-05-07 16:20 61.26900 18.02705 37165 ft 465 kts 191°
2026-05-07 16:20 61.20451 18.01541 37162 ft 464 kts 191°
2026-05-07 16:21 61.14015 18.00382 37164 ft 464 kts 191°
2026-05-07 16:21 61.07581 17.99226 37160 ft 464 kts 191°
2026-05-07 16:22 61.01145 17.98073 37163 ft 463 kts 191°
2026-05-07 16:22 60.94720 17.96935 37158 ft 463 kts 191°
2026-05-07 16:23 60.88296 17.95796 37156 ft 463 kts 191°
2026-05-07 16:23 60.81883 17.94674 37153 ft 462 kts 191°
2026-05-07 16:24 60.75507 17.93563 37149 ft 462 kts 191°
2026-05-07 16:24 60.70176 17.92631 37151 ft 462 kts 191°
2026-05-07 16:25 60.63740 17.91509 37149 ft 461 kts 191°
2026-05-07 16:25 60.57344 17.90389 37145 ft 461 kts 191°
2026-05-07 16:26 60.50952 17.89275 37145 ft 461 kts 191°
2026-05-07 16:26 60.44561 17.88174 37144 ft 461 kts 191°
2026-05-07 16:27 60.38172 17.87085 37137 ft 460 kts 191°
2026-05-07 16:27 60.31786 17.86002 37130 ft 460 kts 191°
2026-05-07 16:28 60.25450 17.84920 37130 ft 460 kts 191°
2026-05-07 16:28 60.19085 17.83831 37124 ft 459 kts 191°
2026-05-07 16:29 60.12714 17.82751 37124 ft 459 kts 190°
2026-05-07 16:29 60.06356 17.81694 37123 ft 458 kts 190°
2026-05-07 16:30 59.99997 17.80639 37121 ft 458 kts 190°
2026-05-07 16:30 59.93656 17.79574 37115 ft 457 kts 190°
2026-05-07 16:31 59.87314 17.78514 37126 ft 457 kts 190°
2026-05-07 16:31 59.80976 17.77464 37129 ft 457 kts 190°
2026-05-07 16:32 59.74646 17.76428 37137 ft 456 kts 190°
2026-05-07 16:32 59.68315 17.75399 37134 ft 456 kts 190°
2026-05-07 16:33 59.62035 17.74377 37134 ft 456 kts 190°
2026-05-07 16:33 59.55707 17.73336 37129 ft 456 kts 190°
2026-05-07 16:34 59.49385 17.72304 37130 ft 456 kts 190°
2026-05-07 16:34 59.43058 17.71274 37130 ft 456 kts 190°
2026-05-07 16:35 59.36732 17.70254 37131 ft 456 kts 190°
2026-05-07 16:35 59.30407 17.69241 37132 ft 456 kts 190°
2026-05-07 16:36 59.24089 17.68224 37135 ft 456 kts 190°
2026-05-07 16:36 59.17770 17.67214 37135 ft 455 kts 190°
2026-05-07 16:37 59.11458 17.66216 37138 ft 455 kts 189°
2026-05-07 16:37 59.05144 17.65220 37136 ft 455 kts 189°
2026-05-07 16:38 58.98840 17.64239 37143 ft 455 kts 189°
2026-05-07 16:38 58.92531 17.63247 37149 ft 454 kts 189°
2026-05-07 16:39 58.86237 17.62241 37149 ft 454 kts 189°
2026-05-07 16:39 58.79949 17.61248 37146 ft 453 kts 189°
2026-05-07 16:40 58.73696 17.60282 37155 ft 453 kts 189°
2026-05-07 16:40 58.67399 17.59329 37149 ft 453 kts 189°
2026-05-07 16:41 58.61119 17.58368 37151 ft 452 kts 189°
2026-05-07 16:41 58.54851 17.57390 37150 ft 452 kts 189°
2026-05-07 16:42 58.48585 17.56426 37159 ft 451 kts 189°
2026-05-07 16:42 58.42327 17.55472 37156 ft 451 kts 189°
2026-05-07 16:43 58.36079 17.54531 37151 ft 450 kts 189°
2026-05-07 16:43 58.29832 17.53574 37150 ft 450 kts 189°
2026-05-07 16:44 58.23589 17.52618 37154 ft 450 kts 188°
2026-05-07 16:44 58.17344 17.51681 37152 ft 450 kts 188°
2026-05-07 16:45 58.11108 17.50758 37154 ft 450 kts 188°
2026-05-07 16:45 58.04916 17.49836 37149 ft 449 kts 188°
2026-05-07 16:46 57.98638 17.48881 37146 ft 449 kts 188°
2026-05-07 16:46 57.92450 17.47969 37144 ft 449 kts 188°
2026-05-07 16:47 57.86206 17.47068 37148 ft 449 kts 188°
2026-05-07 16:47 57.79971 17.46149 37152 ft 449 kts 188°
2026-05-07 16:48 57.73734 17.45226 37152 ft 449 kts 188°
2026-05-07 16:48 57.67505 17.44313 37149 ft 449 kts 188°
2026-05-07 16:49 57.61277 17.43401 37146 ft 449 kts 188°
2026-05-07 16:49 57.55044 17.42501 37143 ft 449 kts 188°
2026-05-07 16:50 57.48806 17.41600 37147 ft 449 kts 188°
2026-05-07 16:50 57.42608 17.40693 37146 ft 449 kts 188°
2026-05-07 16:51 57.36376 17.39794 37143 ft 449 kts 188°
2026-05-07 16:51 57.30135 17.38908 37142 ft 449 kts 188°
2026-05-07 16:52 57.23899 17.38020 37148 ft 449 kts 188°
2026-05-07 16:52 57.17663 17.37135 37145 ft 449 kts 187°
2026-05-07 16:53 57.11427 17.36256 37149 ft 449 kts 187°
2026-05-07 16:53 57.05198 17.35370 37148 ft 449 kts 187°
2026-05-07 16:54 56.98962 17.34492 37148 ft 449 kts 187°
2026-05-07 16:54 56.92731 17.33608 37150 ft 449 kts 187°
2026-05-07 16:55 56.86492 17.32726 37149 ft 450 kts 187°
2026-05-07 16:55 56.80252 17.31874 37146 ft 450 kts 187°
2026-05-07 16:56 56.74046 17.31012 37149 ft 450 kts 187°
2026-05-07 16:56 56.64677 17.29703 37144 ft 450 kts 187°
2026-05-07 16:57 56.58426 17.28842 37145 ft 450 kts 187°
2026-05-07 16:57 56.52171 17.27983 37145 ft 451 kts 187°
2026-05-07 16:58 56.45912 17.27129 37146 ft 451 kts 187°
2026-05-07 16:58 56.39656 17.26275 37146 ft 451 kts 187°
2026-05-07 16:59 56.33399 17.25427 37143 ft 451 kts 187°
2026-05-07 16:59 56.27135 17.24577 37146 ft 451 kts 187°
2026-05-07 17:00 56.20872 17.23727 37147 ft 451 kts 187°
2026-05-07 17:00 56.14648 17.22874 37146 ft 451 kts 187°
2026-05-07 17:01 56.08381 17.22027 37143 ft 451 kts 187°
2026-05-07 17:01 56.02116 17.21197 37143 ft 451 kts 187°
2026-05-07 17:02 55.95854 17.20367 37145 ft 451 kts 187°
2026-05-07 17:02 55.89595 17.19532 37143 ft 451 kts 187°
2026-05-07 17:03 55.83328 17.18707 37149 ft 451 kts 187°
2026-05-07 17:03 55.77063 17.17880 37142 ft 451 kts 187°
2026-05-07 17:04 55.70797 17.17041 37141 ft 451 kts 187°
2026-05-07 17:04 55.64523 17.16363 37141 ft 454 kts 181°
2026-05-07 17:05 55.58277 17.18052 37139 ft 459 kts 173°
2026-05-07 17:05 55.52005 17.20212 37138 ft 459 kts 173°
2026-05-07 17:06 55.45730 17.22358 37133 ft 459 kts 173°
2026-05-07 17:06 55.39447 17.24496 37133 ft 459 kts 173°
2026-05-07 17:07 55.33170 17.26624 37129 ft 459 kts 173°
2026-05-07 17:07 55.26898 17.28744 37133 ft 459 kts 173°
2026-05-07 17:08 55.20627 17.30849 37130 ft 459 kts 173°
2026-05-07 17:08 55.14388 17.32957 37134 ft 459 kts 173°
2026-05-07 17:09 55.08076 17.35083 37129 ft 459 kts 173°
2026-05-07 17:09 55.01845 17.37166 37131 ft 459 kts 173°
2026-05-07 17:10 54.95564 17.39254 37134 ft 459 kts 173°
2026-05-07 17:10 54.90306 17.40998 37130 ft 459 kts 173°
2026-05-07 17:11 54.84036 17.43078 37124 ft 459 kts 173°
2026-05-07 17:11 54.77806 17.45151 37121 ft 458 kts 173°
2026-05-07 17:12 54.71543 17.47220 37124 ft 458 kts 174°
2026-05-07 17:12 54.65289 17.49260 37123 ft 457 kts 174°
2026-05-07 17:13 54.59035 17.51307 37119 ft 457 kts 174°
2026-05-07 17:13 54.52787 17.53340 37120 ft 457 kts 174°
2026-05-07 17:14 54.46540 17.55364 37117 ft 456 kts 174°
2026-05-07 17:14 54.40296 17.57385 37115 ft 456 kts 174°
2026-05-07 17:15 54.34058 17.59407 37111 ft 456 kts 174°
2026-05-07 17:15 54.27828 17.61420 37110 ft 456 kts 174°
2026-05-07 17:16 54.21594 17.63423 37107 ft 455 kts 174°
2026-05-07 17:16 54.15368 17.65405 37099 ft 455 kts 174°
2026-05-07 17:17 54.09179 17.67383 37098 ft 455 kts 174°
2026-05-07 17:17 54.02956 17.69367 37096 ft 455 kts 174°
2026-05-07 17:18 53.96732 17.71333 37099 ft 455 kts 174°
2026-05-07 17:18 53.90515 17.73306 37100 ft 454 kts 174°
2026-05-07 17:19 53.84295 17.75267 37095 ft 454 kts 174°
2026-05-07 17:19 53.78090 17.77219 37092 ft 453 kts 174°
2026-05-07 17:20 53.71894 17.79174 37089 ft 453 kts 174°
2026-05-07 17:20 53.65697 17.81107 37086 ft 452 kts 174°
2026-05-07 17:21 53.59506 17.83021 37085 ft 452 kts 174°
2026-05-07 17:21 53.53321 17.84929 37080 ft 452 kts 174°
2026-05-07 17:22 53.47142 17.86850 37080 ft 452 kts 174°
2026-05-07 17:22 53.40955 17.88759 37080 ft 452 kts 174°
2026-05-07 17:23 53.34770 17.90673 37078 ft 452 kts 174°
2026-05-07 17:23 53.28629 17.92564 37074 ft 452 kts 174°
2026-05-07 17:24 53.22431 17.94451 37079 ft 452 kts 174°
2026-05-07 17:24 53.16240 17.96337 37080 ft 452 kts 174°
2026-05-07 17:25 53.10051 17.98235 37079 ft 452 kts 174°
2026-05-07 17:25 53.03872 18.00123 37080 ft 452 kts 174°
2026-05-07 17:26 52.97677 18.01988 37076 ft 452 kts 174°
2026-05-07 17:26 52.91492 18.03835 37075 ft 452 kts 174°
2026-05-07 17:27 52.85350 18.05677 37072 ft 451 kts 174°
2026-05-07 17:27 52.79167 18.07541 37069 ft 451 kts 173°
2026-05-07 17:28 52.72977 18.09402 37063 ft 451 kts 174°
2026-05-07 17:28 52.66802 18.11242 37064 ft 451 kts 174°
2026-05-07 17:29 52.60623 18.13085 37058 ft 451 kts 174°
2026-05-07 17:29 52.54486 18.14899 37062 ft 451 kts 174°
2026-05-07 17:30 52.48309 18.16721 37058 ft 451 kts 174°
2026-05-07 17:30 52.42133 18.18535 37058 ft 450 kts 174°
2026-05-07 17:31 52.35962 18.20346 37057 ft 450 kts 173°
2026-05-07 17:31 52.29807 18.22160 37053 ft 446 kts 173°
2026-05-07 17:32 52.23689 18.23953 37056 ft 446 kts 173°
2026-05-07 17:32 52.17568 18.25735 37054 ft 446 kts 173°
2026-05-07 17:33 52.11463 18.27508 37053 ft 445 kts 173°
2026-05-07 17:33 52.05363 18.29268 37051 ft 445 kts 173°
2026-05-07 17:34 51.99268 18.31043 37050 ft 445 kts 173°
2026-05-07 17:34 51.93173 18.32797 37047 ft 445 kts 173°
2026-05-07 17:35 51.87081 18.34537 37045 ft 444 kts 173°
2026-05-07 17:35 51.80987 18.36280 37044 ft 444 kts 173°
2026-05-07 17:36 51.74899 18.38033 37037 ft 444 kts 173°
2026-05-07 17:36 51.68802 18.39776 37038 ft 444 kts 173°
2026-05-07 17:37 51.62749 18.41495 37038 ft 444 kts 173°
2026-05-07 17:37 51.56645 18.43216 37032 ft 444 kts 173°
2026-05-07 17:38 51.50561 18.44930 37030 ft 444 kts 173°
2026-05-07 17:38 51.44487 18.46643 37030 ft 444 kts 173°
2026-05-07 17:39 51.38398 18.48362 37024 ft 443 kts 173°
2026-05-07 17:39 51.32318 18.50072 37024 ft 443 kts 173°
2026-05-07 17:40 51.26238 18.51769 37023 ft 443 kts 173°
2026-05-07 17:40 51.20168 18.53461 37017 ft 443 kts 173°
2026-05-07 17:41 51.14129 18.55144 37015 ft 443 kts 173°
2026-05-07 17:41 51.08053 18.56828 37013 ft 443 kts 173°
2026-05-07 17:42 51.01980 18.58510 37017 ft 443 kts 173°
2026-05-07 17:42 50.95866 18.60213 37013 ft 443 kts 173°
2026-05-07 17:43 50.89826 18.61999 37006 ft 443 kts 173°
2026-05-07 17:43 50.83768 18.63833 37010 ft 443 kts 173°
2026-05-07 17:44 50.77707 18.65642 37000 ft 443 kts 173°
2026-05-07 17:44 50.71644 18.67421 36993 ft 442 kts 173°
2026-05-07 17:45 50.65592 18.69191 36997 ft 442 kts 173°
2026-05-07 17:45 50.62613 18.70463 36977 ft 446 kts 161°
2026-05-07 17:45 50.59958 18.72966 36556 ft 449 kts 143°
2026-05-07 17:46 50.57932 18.76687 36208 ft 452 kts 126°
2026-05-07 17:46 50.56704 18.81268 35699 ft 461 kts 109°
2026-05-07 17:46 50.56378 18.86330 35008 ft 469 kts 96°
2026-05-07 17:46 50.56395 18.91487 34022 ft 472 kts 96°
2026-05-07 17:47 50.56428 18.96629 33053 ft 468 kts 96°
2026-05-07 17:47 50.56468 19.01716 32112 ft 460 kts 96°
2026-05-07 17:47 50.56502 19.06703 31205 ft 451 kts 96°
2026-05-07 17:47 50.56525 19.11598 30327 ft 443 kts 96°
2026-05-07 17:48 50.56533 19.16402 29373 ft 435 kts 97°
2026-05-07 17:48 50.56518 19.21119 28395 ft 427 kts 97°
2026-05-07 17:48 50.56489 19.25683 27463 ft 420 kts 97°
2026-05-07 17:48 50.56453 19.30245 26541 ft 414 kts 97°
2026-05-07 17:49 50.56414 19.34798 25650 ft 408 kts 97°
2026-05-07 17:49 50.56376 19.39244 24788 ft 404 kts 96°
2026-05-07 17:49 50.56342 19.43635 23958 ft 400 kts 96°
2026-05-07 17:49 50.56309 19.47926 23081 ft 396 kts 96°
2026-05-07 17:50 50.56274 19.52239 22131 ft 393 kts 96°
2026-05-07 17:50 50.56214 19.56511 21208 ft 386 kts 100°
2026-05-07 17:50 50.55643 19.60532 20317 ft 372 kts 116°
2026-05-07 17:50 50.54433 19.64032 19454 ft 358 kts 132°
2026-05-07 17:51 50.52743 19.66800 18614 ft 346 kts 146°
2026-05-07 17:51 50.50724 19.68761 17722 ft 337 kts 157°
2026-05-07 17:51 50.48633 19.70401 16799 ft 334 kts 157°
2026-05-07 17:51 50.46560 19.72021 15886 ft 332 kts 156°
2026-05-07 17:52 50.44493 19.73633 14957 ft 331 kts 156°
2026-05-07 17:52 50.42435 19.75236 14063 ft 330 kts 156°
2026-05-07 17:52 50.41071 19.76299 13438 ft 329 kts 156°
2026-05-07 17:52 50.39026 19.77894 12616 ft 324 kts 156°
2026-05-07 17:53 50.37040 19.79445 11969 ft 315 kts 156°
2026-05-07 17:53 50.36383 19.79959 11751 ft 312 kts 156°
2026-05-07 17:53 50.35846 19.80377 11580 ft 310 kts 156°
2026-05-07 17:53 50.34538 19.81515 12872 ft 226 kts 155°
2026-05-07 17:54 50.33175 19.82746 12824 ft 234 kts 155°
2026-05-07 17:54 50.31659 19.83943 12033 ft 254 kts 158°
2026-05-07 17:54 50.29991 19.85153 11254 ft 273 kts 158°
2026-05-07 17:54 50.28226 19.86430 10636 ft 284 kts 158°
2026-05-07 17:55 50.26427 19.87761 10248 ft 286 kts 157°
2026-05-07 17:55 50.24639 19.89115 9921 ft 285 kts 156°
2026-05-07 17:55 50.22863 19.90487 9561 ft 285 kts 155°
2026-05-07 17:55 50.21267 19.92322 9197 ft 288 kts 135°
2026-05-07 17:56 50.20169 19.94929 8845 ft 290 kts 114°
2026-05-07 17:56 50.19717 19.97996 8475 ft 292 kts 93°
2026-05-07 17:56 50.19955 20.01108 8303 ft 286 kts 78°
2026-05-07 17:56 50.20365 20.04095 8168 ft 277 kts 78°
2026-05-07 17:57 50.20769 20.07084 7609 ft 286 kts 78°
2026-05-07 17:57 50.21040 20.09112 7259 ft 290 kts 78°
2026-05-07 17:57 50.21158 20.13331 6564 ft 296 kts 108°
2026-05-07 17:57 50.20142 20.16013 6383 ft 283 kts 137°
2026-05-07 17:58 50.18536 20.17598 6253 ft 268 kts 164°
2026-05-07 17:58 50.16740 20.17936 5951 ft 261 kts 189°
2026-05-07 17:58 50.15048 20.17008 5546 ft 258 kts 215°
2026-05-07 17:58 50.13787 20.15064 5178 ft 257 kts 239°
2026-05-07 17:59 50.13001 20.12565 4797 ft 257 kts 246°
2026-05-07 17:59 50.12291 20.10145 4620 ft 239 kts 246°
2026-05-07 17:59 50.11806 20.07761 4232 ft 225 kts 259°
2026-05-07 17:59 50.11498 20.05475 4003 ft 209 kts 259°
2026-05-07 18:00 50.11197 20.03293 4007 ft 205 kts 258°
2026-05-07 18:00 50.10901 20.01131 4012 ft 204 kts 259°
2026-05-07 18:00 50.10604 19.98960 3823 ft 205 kts 258°
2026-05-07 18:00 50.10308 19.96805 3443 ft 202 kts 259°
2026-05-07 18:01 50.10019 19.94695 3068 ft 196 kts 259°
2026-05-07 18:01 50.09738 19.92660 2724 ft 188 kts 259°
2026-05-07 18:01 50.09466 19.90705 2351 ft 183 kts 258°
2026-05-07 18:01 50.09201 19.88800 1949 ft 178 kts 258°
2026-05-07 18:02 50.08722 19.85264 1452 ft 155 kts 257°
2026-05-07 18:02 50.08501 19.83670 1291 ft 147 kts 255°
2026-05-07 18:02 50.08274 19.82155 1087 ft 144 kts 256°
2026-05-07 18:03 50.08077 19.80651 923 ft 139 kts 256°
2026-05-07 18:03 50.07876 19.79222 823 ft 123 kts 256°
2026-05-07 18:03 50.07697 19.77977 791 ft 136 kts 256°
2026-05-07 18:03 50.07534 19.76847 797 ft 38 kts 252°
2026-05-07 18:04 50.07514 19.76806 796 ft 1 kts 169°
2026-05-07 18:04 50.07441 19.76863 792 ft 20 kts 167°
2026-05-07 18:04 50.07320 19.76901 790 ft 18 kts 168°
2026-05-07 18:04 50.07293 19.76916 790 ft 0 kts 141°
2026-05-07 18:05 50.07293 19.76923 790 ft 1 kts 104°
2026-05-07 18:05 50.07297 19.76940 790 ft 3 kts 67°
2026-05-07 18:05 50.07309 19.76980 790 ft 5 kts 66°
2026-05-07 18:05 50.07319 19.77048 790 ft 8 kts 79°
2026-05-07 18:06 50.07332 19.77144 790 ft 11 kts 76°
2026-05-07 18:06 50.07350 19.77267 790 ft 12 kts 77°
2026-05-07 18:06 50.07365 19.77371 790 ft 11 kts 78°
2026-05-07 18:06 50.07383 19.77503 790 ft 14 kts 78°
2026-05-07 18:07 50.07406 19.77666 790 ft 17 kts 78°
2026-05-07 18:07 50.07433 19.77862 790 ft 20 kts 77°
2026-05-07 18:07 50.07464 19.78089 790 ft 23 kts 78°
2026-05-07 18:07 50.07495 19.78307 790 ft 19 kts 77°
2026-05-07 18:08 50.07524 19.78520 790 ft 20 kts 78°
2026-05-07 18:08 50.07550 19.78708 790 ft 18 kts 78°
2026-05-07 18:08 50.07579 19.78910 790 ft 20 kts 78°
2026-05-07 18:08 50.07608 19.79120 790 ft 20 kts 77°
2026-05-07 18:09 50.07639 19.79345 790 ft 21 kts 78°
2026-05-07 18:09 50.07670 19.79566 790 ft 18 kts 76°
2026-05-07 18:09 50.07690 19.79708 790 ft 14 kts 78°
2026-05-07 18:09 50.07704 19.79846 790 ft 13 kts 105°
2026-05-07 18:10 50.07622 19.79897 790 ft 14 kts 169°
2026-05-07 18:10 50.07532 19.79926 790 ft 12 kts 168°
2026-05-07 18:10 50.07509 19.79964 790 ft 4 kts 91°
2026-05-07 18:10 50.07517 19.80026 790 ft 7 kts 78°
2026-05-07 18:11 50.07490 19.80074 790 ft 7 kts 165°
2026-05-07 18:11 50.07473 19.80080 790 ft 1 kts 167°
2026-05-07 18:11 50.07472 19.80080 790 ft 0 kts 167°